TimePDT,TemperatureF,Dew PointF,Humidity,Sea Level PressureIn,VisibilityMPH,Wind Direction,Wind SpeedMPH,Gust SpeedMPH,PrecipitationIn,Events,Conditions,WindDirDegrees,DateUTC
12:30 AM,53.6,51.8,94,29.95,9.0,WSW,20.7,33.4,0.04,,Overcast,240,2013-04-08 07:30:00
12:47 AM,53.6,51.8,94,29.95,5.0,West,17.3,29.9,0.05,,Overcast,260,2013-04-08 07:47:00
12:54 AM,53.1,51.1,93,29.98,8.0,WSW,16.1,26.5,0.05,,Overcast,250,2013-04-08 07:54:00
1:54 AM,50.0,45.0,83,29.99,10.0,West,20.7,31.1,0.03,,Overcast,270,2013-04-08 08:54:00
2:54 AM,50.0,42.1,74,29.99,10.0,West,17.3,29.9,0.02,,Overcast,260,2013-04-08 09:54:00
3:07 AM,50.0,41.0,71,29.95,10.0,West,17.3,27.6,N/A,,Overcast,260,2013-04-08 10:07:00
3:42 AM,50.0,42.8,76,29.93,10.0,West,20.7,26.5,N/A,,Overcast,260,2013-04-08 10:42:00
3:50 AM,50.0,41.0,71,29.92,10.0,West,17.3,31.1,N/A,,Overcast,260,2013-04-08 10:50:00
3:54 AM,50.0,41.0,71,29.96,10.0,West,24.2,33.4,N/A,,Overcast,260,2013-04-08 10:54:00
4:54 AM,50.0,41.0,71,29.96,10.0,West,21.9,38.0,N/A,,Overcast,280,2013-04-08 11:54:00
5:02 AM,50.0,41.0,71,29.92,9.0,West,25.3,39.1,N/A,,Overcast,280,2013-04-08 12:02:00
5:37 AM,50.0,41.0,71,29.91,9.0,West,23.0,35.7,N/A,,Overcast,280,2013-04-08 12:37:00
5:54 AM,50.0,41.0,71,29.95,9.0,West,23.0,35.7,N/A,,Overcast,280,2013-04-08 12:54:00
6:14 AM,50.0,42.8,76,29.91,9.0,West,19.6,33.4,N/A,,Overcast,280,2013-04-08 13:14:00
6:30 AM,50.0,41.0,71,29.91,9.0,WNW,20.7,32.2,N/A,,Overcast,290,2013-04-08 13:30:00
6:54 AM,50.0,41.0,71,29.96,8.0,WNW,17.3,29.9,N/A,,Unknown,290,2013-04-08 13:54:00
7:17 AM,50.0,42.8,76,29.93,8.0,West,17.3,27.6,N/A,,Overcast,280,2013-04-08 14:17:00
7:54 AM,51.1,41.0,68,29.99,9.0,WNW,13.8,28.8,N/A,,Overcast,290,2013-04-08 14:54:00
8:54 AM,52.0,39.9,63,30.00,10.0,WNW,13.8,26.5,N/A,,Overcast,290,2013-04-08 15:54:00
9:38 AM,53.6,41.0,62,29.95,10.0,WNW,13.8,21.9,N/A,,Scattered Clouds,290,2013-04-08 16:38:00
9:54 AM,53.1,41.0,64,29.99,10.0,WNW,16.1,24.2,N/A,,Partly Cloudy,290,2013-04-08 16:54:00
10:54 AM,55.0,41.0,59,30.01,10.0,West,13.8,21.9,N/A,,Clear,280,2013-04-08 17:54:00
11:54 AM,55.9,42.1,60,30.00,10.0,West,15.0,27.6,N/A,,Clear,280,2013-04-08 18:54:00
12:54 PM,55.9,42.1,60,29.99,10.0,West,18.4,28.8,N/A,,Clear,280,2013-04-08 19:54:00
1:54 PM,55.9,43.0,62,29.99,10.0,West,19.6,27.6,N/A,,Clear,280,2013-04-08 20:54:00
2:54 PM,57.0,43.0,59,29.98,10.0,West,16.1,29.9,N/A,,Clear,280,2013-04-08 21:54:00
3:54 PM,55.0,43.0,64,29.99,9.0,West,20.7,32.2,N/A,,Clear,270,2013-04-08 22:54:00
4:54 PM,55.0,44.1,67,29.98,8.0,West,24.2,38.0,N/A,,Clear,270,2013-04-08 23:54:00
5:54 PM,54.0,44.1,69,29.99,7.0,West,19.6,34.5,N/A,,Clear,270,2013-04-09 00:54:00
6:54 PM,52.0,44.1,74,30.00,7.0,West,20.7,34.5,N/A,,Clear,270,2013-04-09 01:54:00
7:54 PM,52.0,44.1,74,30.02,7.0,West,19.6,29.9,N/A,,Clear,260,2013-04-09 02:54:00
8:54 PM,51.1,44.1,77,30.05,8.0,West,16.1,29.9,N/A,,Clear,270,2013-04-09 03:54:00
9:19 PM,51.8,44.6,76,30.02,8.0,West,13.8,21.9,N/A,,Mostly Cloudy,260,2013-04-09 04:19:00
9:54 PM,51.1,44.1,77,30.07,8.0,West,9.2,19.6,N/A,,Overcast,260,2013-04-09 04:54:00
10:54 PM,50.0,44.1,80,30.08,8.0,Variable,4.6,-,N/A,,Overcast,0,2013-04-09 05:54:00
11:20 PM,50.0,44.6,82,30.03,8.0,SW,4.6,-,N/A,,Overcast,230,2013-04-09 06:20:00
11:46 PM,51.8,44.6,76,30.03,7.0,West,11.5,-,N/A,,Mostly Cloudy,280,2013-04-09 06:46:00
11:54 PM,51.1,45.0,80,30.07,8.0,WNW,10.4,-,N/A,,Mostly Cloudy,290,2013-04-09 06:54:00